GW2464 Weather Reports


time (UTC)temp
C
wind
direction
speed
KPH
gust
KPH
rain 1hr
cm
rain 24hr
cm
rain mn
cm
humidity
%
barometer
mb
20260506211905 10 213 4.8 4.8 0.00 1.63 1.63 99 1007.1
20260506211402 10 306 4.8 4.8 0.00 1.63 1.63 99 1006.9
20260506210859 11 263 6.4 8.0 0.00 1.63 1.63 99 1006.9
20260506210356 11 320 1.6 3.2 0.00 1.63 1.63 99 1006.8
20260506205853 11 318 4.8 4.8 0.18 1.63 1.63 99 1006.8
20260506205349 11 272 4.8 4.8 0.00 1.60 1.60 99 1006.3
20260506204846 14 328 6.4 9.7 0.00 1.60 1.60 99 1006.5
20260506204343 14 240 4.8 4.8 0.00 1.60 1.60 99 1005.9
20260506203841 14 296 3.2 3.2 0.00 1.60 1.60 99 1005.7
20260506203338 14 236 4.8 4.8 0.00 1.60 1.60 99 1005.9
20260506202834 14 270 4.8 4.8 0.00 1.60 1.60 99 1005.9
20260506202332 14 203 3.2 3.2 0.00 1.60 1.60 99 1005.7
20260506201828 14 255 4.8 4.8 0.00 1.60 1.60 99 1005.7
20260506201326 14 234 4.8 4.8 0.00 1.60 1.60 99 1006.0
20260506200822 14 187 6.4 8.0 0.00 1.60 1.60 99 1006.0
20260506200318 14 142 3.2 4.8 0.00 1.60 1.60 99 1005.9
20260506195814 13 229 6.4 12.9 0.00 1.60 1.60 99 1005.9
20260506195312 13 181 4.8 4.8 0.00 1.60 1.60 99 1006.4
20260506194809 13 272 3.2 3.2 0.00 1.60 1.60 99 1006.2
20260506194305 13 214 4.8 4.8 0.00 1.60 1.60 99 1006.6
20260506193803 13 237 4.8 4.8 0.00 1.60 1.60 99 1006.2
20260506193259 13 358 0.0 1.6 0.00 1.60 1.60 99 1006.4
20260506192755 13 185 8.0 8.0 0.00 1.60 1.60 99 1006.4
20260506192253 13 214 4.8 4.8 0.00 1.60 1.60 99 1006.4
20260506191749 13 201 4.8 4.8 0.00 1.60 1.60 99 1006.4
20260506191246 13 248 4.8 8.0 0.00 1.60 1.60 99 1006.2
20260506190743 13 269 6.4 9.7 0.00 1.60 1.60 99 1006.4
20260506190239 13 218 6.4 8.0 0.00 1.60 1.60 99 1006.2
20260506185737 13 260 6.4 9.7 0.00 1.60 1.60 99 1006.5
20260506185233 13 208 4.8 4.8 0.00 1.60 1.60 99 1006.3
20260506184730 13 198 3.2 3.2 0.00 1.60 1.60 99 1006.5
20260506184228 13 259 4.8 8.0 0.00 1.60 1.60 99 1006.5
20260506183725 13 201 4.8 4.8 0.00 1.60 1.60 99 1006.5
20260506183220 13 255 4.8 4.8 0.00 1.60 1.60 99 1006.7
20260506182718 13 190 1.6 3.2 0.00 1.60 1.60 99 1006.5
20260506182215 13 169 3.2 4.8 0.00 1.60 1.60 99 1006.6
20260506181713 13 216 3.2 3.2 0.00 1.60 1.60 99 1006.7
20260506181210 13 248 1.6 3.2 0.00 1.60 1.60 99 1006.6
20260506180707 13 21 3.2 3.2 0.00 1.60 1.60 99 1006.7
20260506180202 13 182 4.8 4.8 0.00 1.60 1.60 99 1006.5
20260506175659 13 305 1.6 1.6 0.00 1.60 1.60 99 1006.6
20260506175156 13 138 8.0 9.7 0.18 1.60 1.60 99 1006.6
20260506174654 13 338 1.6 1.6 0.18 1.60 1.60 99 1006.6
20260506174151 13 200 4.8 4.8 0.00 1.57 1.57 99 1006.6
20260506173649 13 304 3.2 3.2 0.00 1.57 1.57 99 1006.6
20260506173145 13 162 3.2 3.2 0.13 1.57 1.57 99 1006.9
20260506172642 13 3 1.6 1.6 0.13 1.57 1.57 99 1006.9
20260506172138 13 312 1.6 3.2 0.18 1.55 1.55 99 1006.9
20260506171631 13 234 3.2 3.2 0.30 1.55 1.55 99 1006.8
20260506171128 13 186 3.2 4.8 0.43 1.52 1.52 99 1006.9
20260506170625 13 315 1.6 1.6 0.30 1.50 1.50 99 1006.6
20260506170117 13 303 1.6 1.6 0.18 1.45 1.45 99 1006.9
20260506165615 13 294 1.6 1.6 0.30 1.45 1.45 99 1007.1
20260506165106 13 251 3.2 3.2 0.30 1.42 1.42 99 1007.2
20260506164603 13 264 1.6 3.2 0.30 1.40 1.40 99 1006.9
20260506164100 13 309 3.2 3.2 0.13 1.37 1.37 99 1006.9
20260506163555 13 261 1.6 3.2 0.00 1.35 1.35 99 1006.9
20260506163051 13 337 1.6 3.2 0.18 1.35 1.35 99 1006.9
20260506162547 13 83 1.6 1.6 0.30 1.35 1.35 99 1006.9
20260506162039 13 254 4.8 4.8 0.13 1.32 1.32 99 1007.0
20260506161536 13 215 3.2 4.8 0.36 1.30 1.30 99 1007.0
20260506161028 13 257 1.6 3.2 0.30 1.27 1.27 99 1007.2
20260506160526 13 316 1.6 1.6 0.30 1.24 1.24 99 1007.1
20260506160022 13 196 3.2 3.2 0.30 1.22 1.22 99 1007.2
20260506155520 13 227 4.8 4.8 0.43 1.19 1.19 99 1007.2
20260506153652 13 221 3.2 4.8 0.30 1.04 1.04 99 1007.4
20260506153149 13 302 1.6 3.2 0.30 0.99 0.99 99 1007.5
20260506152646 13 214 6.4 8.0 0.36 0.97 0.97 99 1007.5
20260506152143 13 226 3.2 3.2 0.30 0.94 0.94 99 1007.1
20260506151642 13 355 0.0 1.6 0.30 0.91 0.91 99 1007.2
20260506151138 13 9 0.0 1.6 0.30 0.89 0.89 99 1007.1
20260506150635 13 4 0.0 0.0 0.30 0.86 0.86 99 1007.5
20260506150132 13 307 1.6 1.6 0.18 0.84 0.84 99 1007.0
20260506145629 13 111 1.6 1.6 0.00 0.81 0.81 99 1007.5
20260506145126 13 267 1.6 1.6 0.13 0.81 0.81 99 1007.2
20260506144624 13 310 1.6 1.6 0.30 0.81 0.81 99 1007.2
20260506144120 13 122 1.6 1.6 0.48 0.79 0.79 99 1007.2
20260506143618 13 15 0.0 0.0 0.30 0.74 0.74 99 1007.3
20260506143116 13 341 1.6 1.6 0.13 0.71 0.71 99 1007.4
20260506142614 13 332 0.0 1.6 0.43 0.71 0.71 99 1007.3
20260506142112 13 141 1.6 3.2 0.66 0.69 0.69 99 1007.7
20260506141609 13 288 1.6 1.6 0.48 0.64 0.64 99 1007.5
20260506141107 13 326 1.6 1.6 0.30 0.58 0.58 99 1007.9
20260506140604 13 272 3.2 3.2 0.48 0.56 0.56 99 1007.8
20260506135558 13 10 0.0 1.6 0.30 0.48 0.48 99 1007.8
20260506135054 13 345 0.0 0.0 0.30 0.46 0.46 99 1007.9
20260506134551 13 320 1.6 1.6 0.43 0.43 0.43 99 1008.1
20260506134047 13 35 1.6 1.6 0.30 0.38 0.38 99 1008.1
20260506133544 12 213 3.2 3.2 0.48 0.36 0.36 99 1008.1
20260506133041 12 207 3.2 3.2 0.43 0.30 0.30 99 1008.4
20260506132539 12 321 1.6 1.6 0.48 0.28 0.28 99 1008.4
20260506132036 12 316 1.6 1.6 0.48 0.23 0.23 99 1008.6
20260506131533 12 343 0.0 1.6 0.43 0.20 0.20 99 1008.7
20260506131029 12 0 0.0 0.0 0.30 0.15 0.15 99 1008.6
20260506130526 12 352 0.0 0.0 0.30 0.13 0.13 99 1008.2
20260506130024 12 352 0.0 0.0 0.13 0.10 0.10 99 1008.4
20260506125522 12 349 0.0 0.0 0.00 0.08 0.08 99 1008.1
20260506125019 12 356 0.0 0.0 0.18 0.08 0.08 99 1007.9
20260506124517 12 2 0.0 0.0 0.18 0.08 0.08 99 1008.2
20260506124014 12 351 0.0 0.0 0.00 0.05 0.05 99 1007.7
20260506123512 12 352 0.0 0.0 0.00 0.05 0.05 99 1007.9
20260506123010 12 7 0.0 0.0 0.13 0.05 0.05 99 1007.9
20260506122506 12 354 0.0 0.0 0.13 0.05 0.05 99 1007.8
20260506122005 12 355 0.0 0.0 0.00 0.03 0.03 99 1007.9
20260506121502 12 2 0.0 0.0 0.00 0.03 0.03 99 1008.0
20260506120958 12 5 0.0 0.0 0.00 0.03 0.03 99 1008.2
20260506120456 12 349 0.0 0.0 0.00 0.03 0.03 99 1008.0
20260506115953 12 349 0.0 0.0 0.00 0.03 0.03 99 1008.1
20260506115451 12 357 0.0 0.0 0.00 0.03 0.03 99 1008.4
20260506114949 12 355 0.0 0.0 0.00 0.03 0.03 99 1007.9
20260506114446 12 0 0.0 0.0 0.00 0.03 0.03 99 1008.1
20260506113945 12 345 0.0 0.0 0.18 0.03 0.03 99 1008.4
20260506113442 11 5 0.0 0.0 0.18 0.03 0.03 99 1008.0
20260506112938 11 6 0.0 0.0 0.00 0.00 0.00 99 1008.0
20260506112436 11 4 0.0 0.0 0.00 0.00 0.00 99 1008.0
20260506111933 11 349 0.0 0.0 0.00 0.00 0.00 99 1008.1
20260506111431 11 349 0.0 0.0 0.00 0.00 0.00 99 1008.0
20260506110928 11 350 0.0 0.0 0.00 0.00 0.00 99 1008.0
20260506110426 11 348 0.0 0.0 0.00 0.00 0.00 99 1008.4
20260506105922 11 3 0.0 0.0 0.00 0.00 0.00 99 1008.1
20260506105418 11 356 0.0 0.0 0.00 0.00 0.00 99 1008.0
20260506104916 11 357 0.0 0.0 0.00 0.00 0.00 99 1007.5
20260506104414 11 3 1.6 1.6 0.00 0.00 0.00 99 1007.9
20260506103912 11 6 1.6 3.2 0.00 0.00 0.00 99 1007.8
20260506103409 11 8 1.6 3.2 0.00 0.00 0.00 99 1007.9
20260506102906 12 9 1.6 1.6 0.00 0.00 0.00 99 1007.8
20260506102404 12 8 0.0 0.0 0.00 0.00 0.00 98 1007.9
20260506101901 12 10 1.6 1.6 0.00 0.00 0.00 97 1007.4
20260506101356 12 9 0.0 1.6 0.00 0.00 0.00 95 1007.7
20260506100854 12 10 1.6 1.6 0.00 0.00 0.00 92 1007.9
20260506100353 12 7 0.0 1.6 0.00 0.00 0.00 92 1007.9
20260506095850 12 6 1.6 1.6 0.00 0.00 0.00 89 1008.0
20260506095348 12 6 0.0 0.0 0.00 0.00 0.00 87 1007.8
20260506094844 12 3 1.6 1.6 0.00 0.00 0.00 88 1007.8
20260506094343 12 1 0.0 0.0 0.00 0.00 0.00 89 1007.4
20260506093841 12 3 1.6 1.6 0.00 0.00 0.00 88 1007.6
20260506093338 12 2 1.6 1.6 0.00 0.00 0.00 90 1007.5
20260506092835 12 6 0.0 1.6 0.00 0.00 0.00 92 1007.3
20260506092333 12 2 0.0 0.0 0.00 0.00 0.00 90 1007.5
20260506091830 12 357 0.0 0.0 0.00 0.00 0.00 92 1007.8
20260506091328 12 6 0.0 0.0 0.00 0.00 0.00 92 1007.6
20260506090825 12 7 0.0 0.0 0.00 0.00 0.00 91 1007.6
20260506090322 11 6 0.0 1.6 0.00 0.00 0.00 93 1007.6
20260506085819 11 6 1.6 1.6 0.00 0.00 0.00 95 1007.8
20260506085315 11 356 1.6 1.6 0.00 0.00 0.00 96 1008.0
20260506084812 11 355 0.0 0.0 0.00 0.00 0.00 96 1008.0
20260506084308 12 356 0.0 0.0 0.00 0.00 0.00 96 1008.1
20260506083805 11 354 0.0 0.0 0.00 0.00 0.00 96 1008.0
20260506083303 11 354 0.0 0.0 0.00 0.00 0.00 96 1007.7
20260506082800 11 354 0.0 0.0 0.00 0.00 0.00 96 1007.8
20260506082256 11 6 0.0 0.0 0.00 0.00 0.00 96 1008.0
20260506081753 11 0 0.0 0.0 0.00 0.00 0.00 96 1007.6
20260506081251 11 2 1.6 1.6 0.00 0.00 0.00 97 1007.7
20260506080749 11 11 1.6 1.6 0.00 0.00 0.00 98 1007.9
20260506080244 11 349 0.0 0.0 0.00 0.00 0.00 98 1008.0
20260506073229 11 351 0.0 0.0 0.00 0.00 0.00 98 1008.2
20260506072725 11 351 0.0 1.6 0.00 0.00 0.00 98 1008.0
20260506072223 11 349 0.0 0.0 0.00 0.00 0.00 98 1008.4
20260506071721 11 349 0.0 0.0 0.00 0.00 0.00 98 1008.1
20260506071218 11 349 0.0 0.0 0.00 0.00 0.00 98 1008.2
20260506070715 10 349 0.0 0.0 0.00 0.00 0.00 98 1008.2
20260506070212 10 347 0.0 1.6 0.00 0.00 0.00 98 1008.5
20260506062149 10 358 0.0 0.0 0.00 0.00 0.00 97 1008.7
20260506061645 10 10 1.6 1.6 0.00 0.00 0.00 97 1008.8
20260506061143 11 351 0.0 1.6 0.00 0.00 0.00 95 1008.7
20260506060641 11 352 1.6 1.6 0.00 0.00 0.00 95 1008.8
20260506060138 11 351 0.0 0.0 0.00 0.00 0.00 95 1008.9
20260506051110 11 6 1.6 1.6 0.00 0.00 0.00 93 1009.2
20260506050608 11 5 1.6 1.6 0.00 0.00 0.00 93 1009.4
20260506050105 11 359 0.0 0.0 0.00 0.00 0.00 92 1009.1
20260506045058 11 354 0.0 0.0 0.00 0.00 0.00 91 1009.0
20260506044556 11 354 0.0 0.0 0.00 0.00 0.00 90 1009.0
20260506044052 12 5 0.0 0.0 0.00 0.00 0.00 89 1008.9
20260506043549 12 6 1.6 1.6 0.00 0.00 0.00 89 1009.2
20260506043048 11 5 0.0 1.6 0.00 0.00 0.00 90 1009.2
20260506042547 11 350 1.6 1.6 0.00 0.00 0.00 91 1009.4
20260506042044 11 349 1.6 1.6 0.00 0.00 0.00 90 1009.3
20260506041543 12 2 0.0 0.0 0.00 0.00 0.00 90 1009.2
20260506041039 12 2 0.0 0.0 0.00 0.00 0.00 89 1009.3
20260506040537 12 356 1.6 1.6 0.00 0.00 0.00 90 1009.1
20260506040032 12 2 1.6 1.6 0.00 0.00 0.00 88 1009.4
20260506035530 11 3 0.0 1.6 0.00 0.00 0.00 90 1009.2
20260506035026 12 355 0.0 1.6 0.00 0.00 0.00 89 1009.2
20260506034524 12 2 0.0 0.0 0.00 0.00 0.00 87 1009.3
20260506034021 12 359 0.0 1.6 0.00 0.00 0.00 88 1009.2
20260506033518 12 359 0.0 1.6 0.00 0.00 0.00 87 1009.2
20260506033015 12 359 0.0 1.6 0.00 0.00 0.00 88 1009.3
20260506032513 12 357 1.6 1.6 0.00 0.00 0.00 87 1009.3
20260506032009 13 359 1.6 1.6 0.00 0.00 0.00 85 1009.2
20260506031507 13 358 1.6 1.6 0.00 0.00 0.00 86 1009.2
20260506031003 13 356 1.6 1.6 0.00 0.00 0.00 86 1009.1
20260506030502 13 355 0.0 1.6 0.00 0.00 0.00 85 1009.1
20260506025958 13 3 0.0 0.0 0.00 0.00 0.00 85 1009.0
20260506025455 13 3 0.0 0.0 0.00 0.00 0.00 86 1009.1
20260506024952 14 3 0.0 1.6 0.00 0.00 0.00 86 1009.0
20260506024448 14 3 0.0 1.6 0.00 0.00 0.00 84 1009.1
20260506023944 14 2 1.6 1.6 0.00 0.00 0.00 85 1009.0
20260506023441 15 2 1.6 1.6 0.00 0.00 0.00 85 1009.1
20260506022938 15 3 1.6 1.6 0.00 0.00 0.00 82 1009.1
20260506022436 15 3 0.0 0.0 0.00 0.00 0.00 81 1009.4
20260506021934 15 3 1.6 1.6 0.00 0.00 0.00 82 1009.3
20260506021430 15 3 0.0 0.0 0.00 0.00 0.00 78 1009.4
20260506020927 15 1 0.0 0.0 0.00 0.00 0.00 80 1009.2
20260506020425 15 351 0.0 0.0 0.00 0.00 0.00 80 1009.1
20260506015922 15 352 1.6 1.6 0.00 0.00 0.00 79 1009.0
20260506015420 16 354 1.6 1.6 0.00 0.00 0.00 79 1008.9
20260506014916 16 1 0.0 0.0 0.00 0.00 0.00 77 1009.0
20260506014414 16 358 1.6 1.6 0.00 0.00 0.00 77 1008.9
20260506013910 15 358 0.0 0.0 0.00 0.00 0.00 78 1009.1
20260506013408 16 357 0.0 0.0 0.00 0.00 0.00 79 1009.0
20260506012904 16 2 0.0 0.0 0.00 0.00 0.00 77 1008.9
20260506012401 16 1 1.6 1.6 0.00 0.00 0.00 80 1008.6
20260506011857 16 1 1.6 1.6 0.00 0.00 0.00 76 1008.6
20260506011354 16 2 0.0 1.6 0.00 0.00 0.00 76 1008.7
20260506010851 16 1 1.6 1.6 0.00 0.00 0.00 76 1008.7
20260506010350 17 1 0.0 1.6 0.00 0.00 0.00 76 1008.6
20260506002850 18 357 0.0 0.0 0.00 0.00 0.00 65 1008.6
20260506002346 18 357 0.0 0.0 0.00 0.00 0.00 65 1008.6
20260506001842 18 357 0.0 0.0 0.00 0.00 0.00 65 1008.6
20260506001339 19 352 1.6 1.6 0.00 0.00 0.00 66 1008.5
20260506000836 19 355 0.0 0.0 0.00 0.00 0.00 61 1008.2
20260506000334 20 351 0.0 0.0 0.00 0.00 0.00 61 1008.5
20260505235830 20 0 0.0 0.0 0.00 0.00 0.00 59 1008.1
20260505235328 21 7 0.0 0.0 0.00 0.00 0.00 58 1008.4
20260505234824 21 318 1.6 1.6 0.00 0.00 0.00 53 1008.2
20260505234323 21 270 3.2 3.2 0.00 0.00 0.00 52 1008.1
20260505233819 21 255 6.4 8.0 0.00 0.00 0.00 51 1008.1
20260505233317 21 249 4.8 4.8 0.00 0.00 0.00 51 1007.9
20260505232814 21 266 3.2 3.2 0.00 0.00 0.00 51 1008.0
20260505232312 21 266 1.6 3.2 0.00 0.00 0.00 52 1007.7
20260505231808 21 321 3.2 3.2 0.00 0.00 0.00 51 1008.0
20260505231307 21 249 1.6 1.6 0.00 0.00 0.00 51 1007.9
20260505230804 21 265 1.6 3.2 0.00 0.00 0.00 52 1007.9
20260505230301 21 166 6.4 9.7 0.00 0.00 0.00 51 1007.7
20260505225757 21 247 3.2 3.2 0.00 0.00 0.00 51 1007.8
20260505225255 21 189 4.8 4.8 0.00 0.00 0.00 50 1007.8
20260505224749 21 222 4.8 4.8 0.00 0.00 0.00 51 1007.5
20260505224248 22 194 1.6 3.2 0.00 0.00 0.00 51 1007.4
20260505223745 22 191 4.8 8.0 0.00 0.00 0.00 48 1007.3
20260505223241 22 219 4.8 4.8 0.00 0.00 0.00 48 1007.5
20260505222737 22 220 4.8 8.0 0.00 0.00 0.00 49 1007.7
20260505222234 22 224 4.8 4.8 0.00 0.00 0.00 50 1007.3
20260505221731 22 276 4.8 8.0 0.00 0.00 0.00 48 1007.2
20260505221227 22 212 4.8 4.8 0.00 0.00 0.00 47 1007.4
20260505220724 22 182 6.4 8.0 0.00 0.00 0.00 47 1007.2
20260505220222 23 227 6.4 8.0 0.00 0.00 0.00 46 1007.2
20260505215720 23 212 4.8 4.8 0.00 0.00 0.00 46 1007.1
20260505215217 23 224 1.6 1.6 0.00 0.00 0.00 47 1007.2
20260505214715 23 201 4.8 4.8 0.00 0.00 0.00 48 1007.2
20260505214212 23 339 4.8 8.0 0.00 0.00 0.00 45 1007.1
20260505213710 23 6 4.8 8.0 0.00 0.00 0.00 46 1007.2
20260505213207 23 225 9.7 11.3 0.00 0.00 0.00 45 1007.3
20260505212703 23 169 11.3 14.5 0.00 0.00 0.00 44 1007.1